Weather History for Luverne, MN

Change the Weather History Date:

Tuesday, September 25, 2012

  Actual Average (KFSD) Record (KFSD)
Temperature  
Mean Temperature 55 °F 57 °F  
Max Temperature 73 °F 69 °F 92 °F (1956)
Min Temperature 37 °F 45 °F 19 °F (1893)
Degree Days  
Heating Degree Days 10 9  
Month to date heating degree days 123  
Since 1 July heating degree days 154  
Cooling Degree Days 0 1  
Month to date cooling degree days 58  
Year to date cooling degree days 683  
Growing Degree Days 5 (Base 50)    
Moisture  
Dew Point 34 °F    
Average Humidity 50    
Maximum Humidity 81    
Minimum Humidity 20    
Precipitation  
Precipitation 0.00 in 0.09 in 2.70 in (1929)
Month to date precipitation 2.35  
Year to date precipitation 21.74  
Snow  
Snow 0.00 in 0.00 in 0.20 in (1939)
Month to date snowfall 0.0  
Since 1 July snowfall 0.0  
Since 1 September snowfall 0.0  
Snow Depth -    
Sea Level Pressure  
Sea Level Pressure 29.89 in    
Wind  
Wind Speed 3 mph (NE)    
Max Wind Speed 10 mph    
Max Gust Speed -    
Visibility 9 miles    
Events      
T = Trace of Precipitation, MM = Missing Value Source: NWS Daily Summary

Daily Weather History Graph

Daily Weather History Graph

Search for Another Location

Airport:

Trip Planner

Search our weather history database for the weather conditions in past years. The results will help you decide how hot, cold, wet, or windy it might be!

Date:

Astronomy

Sep. 25, 2012 Rise Set
Actual Time 7:16 AM CDT 7:15 PM CDT
Civil Twilight 6:47 AM CDT 7:44 PM CDT
Nautical Twilight 6:14 AM CDT 8:17 PM CDT
Astronomical Twilight 5:39 AM CDT 8:51 PM CDT
Moon 4:47 PM CDT (9/25) 2:31 AM CDT (9/25)
Length of Visible Light 12h 56m
Length of Day
11h 59m
Waxing Gibbous, 80% of the Moon is Illuminated
Sep 25
Waxing Gibbous
Sep 29
Full
Oct 8
Last Quarter
Oct 15
New
Oct 21
First Quarter

Hourly Weather History & Observations

Time (CDT) Temp. Windchill Dew Point Humidity Pressure Visibility Wind Dir Wind Speed Gust Speed Precip Events Conditions
12:15 AM 44.6 °F - 35.6 °F 71% 29.84 in 5.0 mi Calm Calm - N/A   Haze
12:34 AM 42.8 °F - 33.8 °F 70% 29.84 in 5.0 mi Calm Calm - N/A   Haze
12:54 AM 44.6 °F - 33.8 °F 66% 29.84 in 7.0 mi Calm Calm - N/A   Clear
1:15 AM 44.6 °F - 35.6 °F 71% 29.84 in 7.0 mi Calm Calm - N/A   Clear
1:34 AM 42.8 °F - 35.6 °F 76% 29.84 in 7.0 mi Calm Calm - N/A   Clear
1:54 AM 42.8 °F - 35.6 °F 76% 29.85 in 7.0 mi Calm Calm - N/A   Clear
2:15 AM 42.8 °F - 35.6 °F 76% 29.85 in 7.0 mi Calm Calm - N/A   Clear
2:34 AM 42.8 °F - 35.6 °F 76% 29.85 in 7.0 mi Calm Calm - N/A   Clear
2:54 AM 41.0 °F - 33.8 °F 76% 29.85 in 10.0 mi Calm Calm - N/A   Clear
3:14 AM 41.0 °F 39.0 °F 35.6 °F 81% 29.85 in 10.0 mi ENE 3.5 mph - N/A   Clear
3:34 AM 42.8 °F - 35.6 °F 76% 29.85 in 10.0 mi Calm Calm - N/A   Clear
3:54 AM 41.0 °F - 35.6 °F 81% 29.84 in 10.0 mi Calm Calm - N/A   Clear
4:14 AM 42.8 °F 41.1 °F 35.6 °F 76% 29.84 in 10.0 mi NNE 3.5 mph - N/A   Clear
4:34 AM 42.8 °F 40.1 °F 35.6 °F 76% 29.84 in 10.0 mi North 4.6 mph - N/A   Clear
4:54 AM 42.8 °F 41.1 °F 35.6 °F 76% 29.84 in 10.0 mi NNE 3.5 mph - N/A   Clear
5:14 AM 42.8 °F - 35.6 °F 76% 29.84 in 10.0 mi Calm Calm - N/A   Clear
5:34 AM 42.8 °F - 33.8 °F 70% 29.84 in 10.0 mi Calm Calm - N/A   Clear
5:54 AM 42.8 °F - 33.8 °F 70% 29.85 in 10.0 mi Calm Calm - N/A   Clear
6:14 AM 39.2 °F - 32.0 °F 75% 29.85 in 10.0 mi Calm Calm - N/A   Clear
6:35 AM 37.4 °F - 32.0 °F 81% 29.85 in 10.0 mi Calm Calm - N/A   Clear
6:54 AM 37.4 °F - 32.0 °F 81% 29.86 in 10.0 mi Calm Calm - N/A   Clear
7:14 AM 41.0 °F - 33.8 °F 76% 29.87 in 10.0 mi Calm Calm - N/A   Clear
7:35 AM 41.0 °F - 33.8 °F 76% 29.87 in 5.0 mi Calm Calm - N/A   Haze
7:54 AM 37.4 °F - 32.0 °F 81% 29.87 in 10.0 mi Calm Calm - N/A   Clear
8:14 AM 44.6 °F 43.1 °F 37.4 °F 76% 29.88 in 10.0 mi NNE 3.5 mph - N/A   Clear
8:35 AM 46.4 °F 45.2 °F 37.4 °F 71% 29.88 in 10.0 mi NE 3.5 mph - N/A   Clear
8:54 AM 50.0 °F - 39.2 °F 66% 29.88 in 10.0 mi NE 4.6 mph - N/A   Clear
9:14 AM 51.8 °F - 39.2 °F 62% 29.89 in 10.0 mi NNE 4.6 mph - N/A   Clear
9:34 AM 55.4 °F - 39.2 °F 54% 29.90 in 10.0 mi NE 4.6 mph - N/A   Clear
9:54 AM 59.0 °F - 41.0 °F 51% 29.90 in 10.0 mi NE 4.6 mph - N/A   Clear
10:14 AM 60.8 °F - 41.0 °F 48% 29.90 in 10.0 mi NNE 3.5 mph - N/A   Clear
10:34 AM 64.4 °F - 39.2 °F 40% 29.90 in 10.0 mi NE 6.9 mph - N/A   Clear
10:54 AM 68.0 °F - 35.6 °F 30% 29.91 in 10.0 mi ENE 4.6 mph - N/A   Clear
11:15 AM 69.8 °F - 32.0 °F 25% 29.91 in 10.0 mi ENE 8.1 mph - N/A   Clear
11:34 AM 69.8 °F - 32.0 °F 25% 29.91 in 10.0 mi NE 9.2 mph - N/A   Clear
11:54 AM 71.6 °F - 32.0 °F 23% 29.91 in 10.0 mi NE 9.2 mph - N/A   Clear
12:15 PM 73.4 °F - 32.0 °F 22% 29.91 in 10.0 mi ENE 10.4 mph - N/A   Clear
12:34 PM 73.4 °F - 32.0 °F 22% 29.91 in 10.0 mi NE 10.4 mph - N/A   Clear
12:54 PM 73.4 °F - 32.0 °F 22% 29.91 in 10.0 mi ENE 8.1 mph - N/A   Clear
1:15 PM 73.4 °F - 32.0 °F 22% 29.90 in 10.0 mi NNE 6.9 mph - N/A   Clear
2:15 PM 73.4 °F - 30.2 °F 20% 29.90 in 10.0 mi NE 5.8 mph - N/A   Clear
2:34 PM 73.4 °F - 30.2 °F 20% 29.90 in 10.0 mi NNE 6.9 mph - N/A   Clear
2:54 PM 73.4 °F - 30.2 °F 20% 29.89 in 10.0 mi Calm Calm - N/A   Clear
3:14 PM 73.4 °F - 30.2 °F 20% 29.89 in 10.0 mi North 5.8 mph - N/A   Clear
3:34 PM 73.4 °F - 30.2 °F 20% 29.89 in 10.0 mi NE 5.8 mph - N/A   Clear
3:54 PM 73.4 °F - 30.2 °F 20% 29.89 in 10.0 mi ENE 8.1 mph - N/A   Clear
4:14 PM 73.4 °F - 32.0 °F 22% 29.89 in 10.0 mi NNE 6.9 mph - N/A   Clear
4:34 PM 73.4 °F - 32.0 °F 22% 29.89 in 5.0 mi NNE 5.8 mph - N/A   Haze
4:55 PM 73.4 °F - 32.0 °F 22% 29.89 in 10.0 mi NNE 5.8 mph - N/A   Clear
5:14 PM 73.4 °F - 32.0 °F 22% 29.89 in 10.0 mi ENE 5.8 mph - N/A   Clear
5:34 PM 73.4 °F - 32.0 °F 22% 29.90 in 10.0 mi NE 8.1 mph - N/A   Clear
6:14 PM 71.6 °F - 33.8 °F 25% 29.91 in 10.0 mi NE 9.2 mph - N/A   Clear
6:34 PM 69.8 °F - 33.8 °F 27% 29.91 in 10.0 mi NNE 4.6 mph - N/A   Clear
6:55 PM 68.0 °F - 33.8 °F 28% 29.92 in 7.0 mi NNE 4.6 mph - N/A   Clear
7:14 PM 64.4 °F - 35.6 °F 34% 29.92 in 10.0 mi NE 3.5 mph - N/A   Clear
7:55 PM 60.8 °F - 37.4 °F 42% 29.93 in 10.0 mi NE 4.6 mph - N/A   Clear
8:14 PM 60.8 °F - 35.6 °F 39% 29.94 in 10.0 mi NNE 5.8 mph - N/A   Clear
8:34 PM 59.0 °F - 35.6 °F 42% 29.94 in 10.0 mi NE 4.6 mph - N/A   Clear
8:55 PM 59.0 °F - 35.6 °F 42% 29.94 in 10.0 mi NNE 4.6 mph - N/A   Clear
9:14 PM 55.4 °F - 35.6 °F 47% 29.95 in 10.0 mi Calm Calm - N/A   Clear
9:34 PM 55.4 °F - 35.6 °F 47% 29.96 in 10.0 mi NNE 5.8 mph - N/A   Clear
9:54 PM 53.6 °F - 35.6 °F 51% 29.97 in 10.0 mi NE 4.6 mph - N/A   Clear
10:14 PM 53.6 °F - 35.6 °F 51% 29.97 in 10.0 mi NE 6.9 mph - N/A   Clear
10:34 PM 53.6 °F - 33.8 °F 47% 29.98 in 10.0 mi NNE 4.6 mph - N/A   Clear
10:54 PM 51.8 °F - 33.8 °F 50% 29.97 in 10.0 mi NE 4.6 mph - N/A   Clear
11:34 PM 50.0 °F - 33.8 °F 54% 29.97 in 10.0 mi NE 5.8 mph - N/A   Clear
11:54 PM 51.8 °F - 33.8 °F 50% 29.97 in 10.0 mi NNE 6.9 mph - N/A   Clear